sat.trackr.live / text

‹ back to catalog

STARLINK-2099

NORAD 47379 · 2021-005AG

PAYLOAD ACTIVE UNKNOWN

§ Identity

Operator
Country
US
Launch date
2021-01-20
Launch site
AFETR
Launch vehicle
Mass (kg)
RCS (m²)

Purposes: comms

External: N2YO · Heavens-Above · Gunter

§ Orbital elements

Epoch: 2026-05-25T01:24:38.481408Z

Period
94.01 min
Inclination
53.1608°
Eccentricity
0.0001593
Mean motion
15.31714701 rev/d
Perigee alt
469.6 km
Apogee alt
471.8 km
Semi-major
6,848.8 km
B*
1.3387e-4
RAAN
18.3499°
Arg perigee
93.3438°
Mean anomaly
266.7746°
Rev number
29,542

§ Raw data

STARLINK-20991 47379U 21005AG  26145.05877872  .00003793  00000+0  13387-3 0  99962 47379  53.1608  18.3499 0001593  93.3438 266.7746 15.31714701295427

JSON: /api/v1/satellites/47379 · /tle

For live sub-satellite position, see the globe view (requires WebGL).

§ Visibility from observer

Set your observer location to see the next 7 days of passes ≥ 10°. The values pass through the URL so the page stays shareable.

No JS? Fill the form by hand. The geolocation button needs JavaScript.